SL-14 R/B (18749 NORAD) Tracking and Keplerian Element Data

This shows tracking and keplerian element data for the satellite.

Feedback or suggestion? Click here.




ElementValue
Catalog18749
NameSL-14 R/B
Epoch Orbit92526
Epoch Day12.92787389
Epoch Year2024
RAAN214.6878
Inclination82.5123
Eccentricity0.0017633
Argument of Perigee321.6752
Mean Anonmoly38.3209
Mean Motion14.84071037
Decay Rate7.08E-06
L11 18749U 88001B 24012.92787389 .00000708 00000+0 81958-4 0 9997
L22 18749 82.5123 214.6878 0017633 321.6752 38.3209 14.84071037925268



Live tracking and technical data element details for SL-14 R/B (NORAD 18749). SL-14 R/B can be tracked NOW for your location showing map with azimuth and elevation plus other details from your city location.







IsCatalogInMostPopularTable: catalog: 18749, numindb: 283
Update: records affected: 1



GetName: 18749 SL-14 R/B

Hit Count: updated at: Mon, 15 Apr 2024 00:24:34 GMT